STARLINK-2660 (48450 NORAD) Tracking and Keplerian Element Data

This shows tracking and keplerian element data for the satellite.

Feedback or suggestion? Click here.




ElementValue
Catalog48450
NameSTARLINK-2660
Epoch Orbit367
Epoch Day214.91667824
Epoch Year2021
RAAN162.8482
Inclination53.0479
Eccentricity0.0001289
Argument of Perigee71.3905
Mean Anonmoly269.8848
Mean Motion15.21534913
Decay Rate-0.00835631
L11 48450U 21040Y 21214.91667824 -.00835631 00000-0 -39737-1 0 9999
L22 48450 53.0479 162.8482 0001289 71.3905 269.8848 15.21534913 3672

Live tracking and technical data element details for STARLINK-2660 (NORAD 48450). STARLINK-2660 can be tracked NOW for your location showing map with azimuth and elevation plus other details from your city location.

Track the satellite on the map from your city or location and see movement details for azimuth, elevation, latitude, longitude, range, height, and movement on the map or in text.







IsCatalogInMostPopularTable: catalog: 48450, numindb: 28
Update: records affected: 1



GetName: 48450 STARLINK-2660

Hit Count: updated at: Tue, 03 Aug 2021 23:58:36 GMT